Address 0x8183334f8676094843f811770500034ced59777e

 
 
Txn Hash
Block
From
To
Value [Txn Fee]
0xa1df0b6ff26716dff31a831624f72e48eadb7c770e7928d57f3fcfb35eab049897503262021-08-04 20:27:001 day 1 hr ago0x8183334f8676094843f811770500034ced59777eOUT NoLimitCoin: NLC Token0 BNB0.000181045
0xf28eece236c4c561370f9fa73b0f4ae3d5dd433530cb44842b6e10224ea817df97502792021-08-04 20:24:391 day 1 hr ago0x8183334f8676094843f811770500034ced59777eOUT NoLimitCoin: NLC Token0 BNB0.000180985
0xc463a76855f5e58b124b041dcb09324abdffd6126e524665bc171e94b0744cbb97502472021-08-04 20:23:031 day 1 hr ago0x8183334f8676094843f811770500034ced59777eOUT NoLimitCoin: NLC Token0 BNB0.000181045
0x4e375b7bc56914dab8f4bcb6490e248fbbc0fed5336fa4da294a3b4c0d7a38e897502142021-08-04 20:21:241 day 1 hr ago0x8183334f8676094843f811770500034ced59777eOUT NoLimitCoin: NLC Token0 BNB0.000181105
0x870996fd73a40e9369a7ca44b5114624f1a58f83d167508242e57ea42132e6a397441722021-08-04 15:12:391 day 6 hrs ago0x8183334f8676094843f811770500034ced59777eOUT NoLimitCoin: NLC Token0 BNB0.000181105
0xeeac7dfae92f5eadab1d9828949e396f4609fb3a37bc3b066723d5440891b10397438972021-08-04 14:58:441 day 6 hrs ago0x8183334f8676094843f811770500034ced59777eOUT NoLimitCoin: NLC Token0 BNB0.000181165
0x48254e8a73192503e87b43e540f297b9fe242e8bee1262eae1d649d54f3d3f8197438622021-08-04 14:56:511 day 6 hrs ago0x8183334f8676094843f811770500034ced59777eOUT NoLimitCoin: NLC Token0 BNB0.000181045
0x5e06a87a606952127a255618665f70919ea2df76c57dea2b206ab51f07e2870997438442021-08-04 14:55:471 day 6 hrs ago0x8183334f8676094843f811770500034ced59777eOUT NoLimitCoin: NLC Token0 BNB0.000181045
0x556ceefd01d45aeec57d83e6a30fff435acef4b2bb32a92369ac03c79b60adf597438282021-08-04 14:54:571 day 6 hrs ago0x8183334f8676094843f811770500034ced59777eOUT NoLimitCoin: NLC Token0 BNB0.000180985
0xb1f495ca7cb2151c17c7fc814a78f728dc8eaa550ccb78339a71fd178bd373c397438132021-08-04 14:54:121 day 6 hrs ago0x8183334f8676094843f811770500034ced59777eOUT NoLimitCoin: NLC Token0 BNB0.000181045
0x834a262ab2c0f9308a1a5eab9f34aed1fd416aa1ec0ead9247654e0e43ed6df097214842021-08-03 19:37:272 days 2 hrs ago0x8183334f8676094843f811770500034ced59777eOUT NoLimitCoin: NLC Token0 BNB0.000256045
0x8d10ccca30d4369327f3bc5bd63a9e830341cf988a869d6d701f0e02403a934597207362021-08-03 18:59:302 days 2 hrs ago0x8183334f8676094843f811770500034ced59777eOUT NoLimitCoin: NLC Token0 BNB0.000181045
0x03d8299c4481d92fb6a51f8f6f71f1cd5aff5c2f720d5609f80a6b950b72676497207072021-08-03 18:58:032 days 2 hrs ago0x8183334f8676094843f811770500034ced59777eOUT NoLimitCoin: NLC Token0 BNB0.000181045
0x143e17abd704e7659b4f22be34c1ef15d5051c345a619d571cad91f8c61d528b97206872021-08-03 18:57:032 days 2 hrs ago0x8183334f8676094843f811770500034ced59777eOUT NoLimitCoin: NLC Token0 BNB0.000181045
0x5a559003c3e75f67419716cae37c3fde762db40cdc806a3c7743f2f2802a2c9b96983342021-08-02 22:59:502 days 22 hrs ago0x8183334f8676094843f811770500034ced59777eOUT NoLimitCoin: NLC Token0 BNB0.000181045
0xd363354efe321818e916321d1709294a3ffeed71250f1570c310d5922105451196983052021-08-02 22:58:232 days 22 hrs ago0x8183334f8676094843f811770500034ced59777eOUT NoLimitCoin: NLC Token0 BNB0.000181045
0xb82c424d5c5b1899fe5122024d80f194135f12b73d0bb726226fb54ace6bf0d896955262021-08-02 20:37:443 days 1 hr ago0x8183334f8676094843f811770500034ced59777eOUT NoLimitCoin: NLC Token0 BNB0.000255925
0xa65433c4710cbd7332e6c13cfe5ba3a1a19ea777dfe9638f05b9bfd080893fe896955082021-08-02 20:36:503 days 1 hr ago0x8183334f8676094843f811770500034ced59777eOUT NoLimitCoin: NLC Token0 BNB0.000255985
0x2cfd76fe23b3c35798ede629bc4ae53bd78f2c300e8cd24dfe66dc5350a0e95e96938762021-08-02 19:13:133 days 2 hrs ago0x8183334f8676094843f811770500034ced59777eOUT NoLimitCoin: NLC Token0 BNB0.000255925
0x6821111511274dda025f514910063d5fa77d57ed4aa0fe67416e146e2b4c1cbf96879062021-08-02 14:00:423 days 7 hrs ago0x8183334f8676094843f811770500034ced59777eOUT NoLimitCoin: NLC Token0 BNB0.000181045
0xb268808aabb951fdaef2848eff1d68e827c30f23309f1feca3bba39983a4288f96878912021-08-02 13:59:513 days 7 hrs ago0x8183334f8676094843f811770500034ced59777eOUT NoLimitCoin: NLC Token0 BNB0.000256045
0x8d26d6ea2384d7071d50911567930864dcfdb0543f7b55f80970f04ba96d988396656922021-08-01 18:57:304 days 2 hrs ago0x8183334f8676094843f811770500034ced59777eOUT NoLimitCoin: NLC Token0 BNB0.000181045
0x2bdfb48aeac9f32689c6191eca219e02a7ab6e47ea3abf5d5b0e8a494d37d56a96647792021-08-01 18:11:354 days 3 hrs ago0x8183334f8676094843f811770500034ced59777eOUT NoLimitCoin: NLC Token0 BNB0.000255985
0xc3f65b146a4cd5baffad96ec343704761fb9cfb4a9243a2804589ebb893aefc096647472021-08-01 18:09:594 days 3 hrs ago0x8183334f8676094843f811770500034ced59777eOUT NoLimitCoin: NLC Token0 BNB0.000180925
0x8baf3c43ee33dfddbe7b571ecbb56c12a6ac05d2d44d0b8a568431dcfb3a7db096647232021-08-01 18:08:474 days 3 hrs ago0x8183334f8676094843f811770500034ced59777eOUT NoLimitCoin: NLC Token0 BNB0.000181045
[ Download CSV Export 
Parent Txn Hash Block From To Value
Loading

Contract Name:
0 BNB

Compiler Version
0

Optimization Enabled:
0 BNB

Other Settings:
-NA-
Block Transaction Gas Used Reward
Age Block Fee Address BC Fee Address Voting Power Jailed Incoming
Block Uncle Number Difficulty Gas Used Reward
Loading
Loading
Make sure to use the "Vote Down" button for any spammy posts, and the "Vote Up" for interesting conversations.